HINODE (SOLAR-B)

Last updated on Sun Jun 21 2026 00:03:39 GMT+0000 (Coordinated Universal Time)

1 29479U 06041A 26171.45569669 .00000470 00000+0 89260-4 0 9998 2 29479 98.0544 187.5601 0015947 278.4847 81.4551 14.68626564 55357
UTC large
Height (km)
Speed (km/s)
/
Latitude / Longitude
Inclination (degrees)
Orbital Period (minutes)
Azimuth
Elevation
Range (km)
Doppler Factor

Next 0 passes for location: London (51.5072 / 0.1276)

No passes found over London.
HINODE (SOLAR-B)